Cleveland Hopkins International Airport Cleveland US
ICAO: KCLE
IATA: CLE
Category: Large
Scheduled Services: Yes

Elevation: 791 ft
TransAlt. 18000 ft.

Airport Communications:
APP:119.625
ATIS:127.85
CLNC DEL:125.05
DEP:118.15
GND:121.7
RDO:122.2
RAMP CON:129.17
TWR:120.9
UNICOM:122.95

KCLE Zoom In..

Runways:

(A) RW 06L length 9000 ft width 150 ft
ILS 111.55 / hdg 57

(B) RW 06R length 9956 ft width 150 ft
ILS 111.90 / hdg 57

(C) RW 10 length 6018 ft width 150 ft
---- / hdg 100

(D) RW 24L length 9956 ft width 150 ft
ILS 109.90 / hdg 237

(E) RW 24R length 9000 ft width 150 ft
ILS 111.55 / hdg 237

(F) RW 28 length 6018 ft width 150 ft
ILS 110.70 / hdg 280

Location; KCLE
Day. 23 / Time. 09.51 Zulu
* Altimeter: 29.85
* Temperature: 20° c. 68°f.
* Wind from: 080° Speed 05 kn.
Dewpoint: 18° c.
Visibility: 10 Statute Miles.
Clouds: Scattered 1800 ft.
Clouds: Scattered 3100 ft.
Clouds: Scattered 5000 ft.

KCLE 230951Z 08005KT 10SM SCT018 SCT031 SCT050 20/18 A2985 RMK AO2 SLP105 T02000183 $


Wind From 080°
Speed 05 kn.

 
 
jpsmedia.com for Web Design worldairports.se 2018   terms of use